Location: *
(48.8489°N, 2.3218°E)
Time: 05:42:42
(UTC+00:00)

Cosmos 1346 Rocket - Pass Details

Date: 23 August 2019
Orbit: 519 x 560 km, 81.2° (Epoch: 19 September)

Event Time Altitude Azimuth Distance (km) Brightness Sun altitude
Exits shadow 21:03:45 52° 164° (SSE) 656 2.8 -19.2°
Maximum altitude 21:04:34 72° 100° (E) 554 2.6 -19.3°
Drops below altitude 10° 21:08:26 10° 16° (NNE) 1,769 5.8 -19.7°
Sets 21:10:35 0° 14° (NNE) 2,666 6.8 -20.0°
